Regional Weather Roundup
Issued by NWS

Home | Current Version | Previous Version | Graphics & Text | Print | Product List | Glossary On
Versions: 1 2 3 4 5 6 7 8 9 10 11 12 13 14 15 16 17 18 19 20 21 22 23 24 25 26 27 28 29 30 31 32 33 34 35 36 37 38 39 40 41 42 43 44 45 46 47 48 49 50
000
ASUS44 KMEG 150000
RWRTN
TENNESSEE HOURLY STATE WEATHER ROUNDUP
NATIONAL WEATHER SERVICE MEMPHIS TN
700 PM CDT SUN SEP 14 2014

TNZ002-004-019-021-049-052-054-088>092-150100-
WEST TENNESSEE

CITY           SKY/WX    TMP DP  RH WIND       PRES   REMARKS
MEMPHIS INTL   PTCLDY    74  56  53 NE7       30.16S
NWS MEMPHIS      N/A     71 N/A N/A MISG        N/A
JACKSON        PTCLDY    70  59  68 NE5       30.17R
DYERSBURG      CLEAR     70  50  49 CALM      30.17F
PARIS          CLEAR     64  55  72 N3        30.18S
$$

TNZ008-025-027-028-033-062-065-066-150100-
NORTH MIDDLE TENNESSEE

CITY           SKY/WX    TMP DP  RH WIND       PRES   REMARKS
NASHVILLE      PTCLDY    72  56  57 N7        30.17S
CLARKSVILLE    CLEAR     69  55  60 N5        30.17S
COOKEVILLE     CLEAR     66  64  94 CALM      30.18S
CROSSVILLE     CLEAR     68  62  81 NW6       30.21R
$$

TNZ061-075-076-078-094-096-097-150100-
SOUTH MIDDLE TENNESSEE

CITY           SKY/WX    TMP DP  RH WIND       PRES   REMARKS
SHELBYVILLE    CLEAR     72  61  68 CALM      30.18R
$$

TNZ017-018-042-046-047-150100-
NORTHEAST TENNESSEE

CITY           SKY/WX    TMP DP  RH WIND       PRES   REMARKS
TRI CITIES     CLOUDY    67  62  84 CALM      30.20S
$$

TNZ012-013-036-069-073-074-150100-
CENTRAL EAST TENNESSEE

CITY           SKY/WX    TMP DP  RH WIND       PRES   REMARKS
KNOXVILLE      PTCLDY    73  65  75 SE6       30.16S
OAK RIDGE      CLEAR     72  66  81 CALM      30.17S
$$

TNZ083-085-099-150100-
SOUTHEAST TENNESSEE

CITY           SKY/WX    TMP DP  RH WIND       PRES   REMARKS
CHATTANOOGA    PTCLDY    78  67  68 SE3       30.14S
$$

SKY/WX REPORTED AS FAIR MEANS FEW OR NO CLOUDS BELOW
12 THOUSAND FEET.



USA.gov is the U.S. government's official web portal to all federal, state and local government web resources and services.